Miscellaneous Local Product
Issued by NWS North Platte, NE

Home | Current Version | Previous Version | Text Only | Print | Product List | Glossary On
Versions: 1 2 3 4 5 6 7 8 9 10 11 12 13 14 15 16 17 18 19 20 21 22 23 24 25 26 27 28 29 30 31 32 33 34 35 36 37 38 39 40 41 42 43 44 45 46 47 48 49 50
000
AXUS43 KLBF 281710
MISLBF


WESTERN AND NORTH CENTRAL NEBRASKA HOURLY WEATHER ROUNDUP
NATIONAL WEATHER SERVICE NORTH PLATTE NE
1200 PM CDT TUE MAR 28 2017

NOTE: "FAIR" INDICATES FEW OR NO CLOUDS BELOW 12,000 FEET WITH NO
SIGNIFICANT WEATHER AND/OR OBSTRUCTIONS TO VISIBILITY.

NOTE: STATIONS NOT REPORTING VARIABLES SUCH AS SKY/WEATHER OR
PRESSURE ARE PROVIDED BY RAWS AND APRS NETWORKS AND ARE NOT UNDER
NATIONAL WEATHER SERVICE QUALITY CONTROL.

...OBSERVATIONS IN AND NEAR THE EASTERN PANHANDLE OF NEBRASKA...

CITY           SKY/WX    TMP DP  RH WIND       PRES   REMARKS
PINE RIDGE     RAIN      46  44  93 E7        30.03S FOG
CHADRON        LGT RAIN  45  41  86 NE13      30.01S
ALLIANCE       LGT RAIN  45  43  93 E17       29.95F
SIDNEY         LGT RAIN  44  42  93 E17G24    29.91S FOG
CRESCENT LAKE    N/A     43  43 100 E15         N/A
$$

...OBSERVATIONS IN NORTHERN NEBRASKA AND FAR SOUTHERN SOUTH DAKOTA...

CITY           SKY/WX    TMP DP  RH WIND       PRES   REMARKS
WINNER         LGT RAIN  50  46  86 SE12      30.10R
VALENTINE      CLOUDY    47  43  86 E10       30.06S
THEDFORD       CLOUDY    44  43  93 SE10      30.07R
AINSWORTH      CLOUDY    47  45  94 E7        30.06S
O`NEILL        CLOUDY    48  43  82 NE3       30.11S
ORD            CLOUDY    49  40  71 E7        30.06F
BROKEN BOW     CLOUDY    45  42  89 SE7       30.05R
VALENTINE NWR    N/A     43  43  99 SE7         N/A
HALSEY           N/A     43  42  98 SE6         N/A
BUTTE            N/A     45  41  87 E3          N/A
CHAMBERS         N/A     51  43  75 N3          N/A
EWING            N/A     49  42  76 E3          N/A
$$

...OBSERVATIONS IN SOUTHWEST NEBRASKA AND FAR NORTHEAST COLORADO...

CITY           SKY/WX    TMP DP  RH WIND       PRES   REMARKS
WRAY           LGT RAIN N/A N/A N/A SE10      29.91S
HOLYOKE        RAIN      46  43  87 E16       29.92S
IMPERIAL       LGT RAIN  45  43  93 E15       29.95F
OGALLALA       LGT RAIN  46  44  95 E13       29.98S
NORTH PLATTE   LGT RAIN  45  43  93 E13       30.02S FOG
MCCOOK         CLOUDY    46  45  96 E14       29.98F FOG
LEXINGTON      CLOUDY    48  43  81 SE9       30.03F
STAPLETON        N/A     42  41  97 CALM        N/A
GOTHENBURG       N/A     44  43  97 SE8         N/A
CALLAWAY         N/A     42  41  98 SE6         N/A
$$

...OBSERVATIONS IN CENTRAL LINCOLN COUNTY AREA...

CITY           SKY/WX    TMP DP  RH WIND       PRES   REMARKS
N.P. AIRPORT   LGT RAIN  45  43  93 E13       30.02S FOG
N.P. DOWNTOWN    N/A     44  43  96 E6          N/A
N.P. SOUTHEAST   N/A     44  43  95 E3          N/A
N.P. HILLCREST   N/A     44  43  97 E10         N/A
$$

...SOME OBSERVATIONS FROM AROUND THE REGION...

CITY           SKY/WX    TMP DP  RH WIND       PRES   REMARKS
DENVER         CLOUDY    44  39  82 NW16      29.86R
LIMON          CLOUDY    43  42  97 S7        29.87R
ASPEN          CLOUDY    37  34  89 N7        29.89R WCI  32
LARAMIE        LGT RAIN  36  34  92 N12       29.92S WCI  28
CASPER         CLOUDY    39  36  89 N24       30.03R WCI  28
CHEYENNE       CLOUDY    40  38  93 N14G22    29.90S WCI  32
SCOTTSBLUFF    LGT RAIN  46  44  93 E17       29.93R
GRAND ISLAND   CLOUDY    48  42  80 E13       30.08S
OMAHA          CLOUDY    49  40  71 E8        30.13R
SIOUX FALLS    CLOUDY    55  40  56 E6        30.14S
PIERRE         CLOUDY    51  42  71 SE12      30.09R
RAPID CITY     LGT RAIN  42  38  85 CALM      30.03R FOG
BISMARCK       CLOUDY    43  37  79 NE7       30.14S
KANSAS CITY    DRIZZLE   50  49  96 E6        30.09F FOG
HILL CITY      CLOUDY    48  47  96 E10       29.97F FOG
WICHITA        CLOUDY    53  46  77 E15       29.97F
DODGE CITY     CLOUDY    48  45  89 E16G28    29.90S FOG
OKLAHOMA CITY  CLOUDY    60  49  66 E16       29.91F
DALLAS         CLOUDY    72  63  73 E12       29.85F
AMARILLO       TSTM      50  50 100 SE28G40   29.76F VSB 1/4
$$




USA.gov is the U.S. government's official web portal to all federal, state and local government web resources and services.